User: anonymous
Location: Unspecified
(0.0000°N, 0.0000°E)
Time: 13:05:11
(UTC+02:00)
Language:

ARIANE DEB (SPELDA) - Orbit

View from above orbital plane
View from above orbital plane
View from above satellite
View from above satellite

Ground track
Ground track

The orbit data is extracted from the following two-line orbital elements,

1 27402U 02015D   14107.63845834  .00000598  00000-0  88103-3 0  9789
2 27402 003.5980 286.0622 7105166 003.0914 233.5920 02.45418215105429
Epoch (UTC): 17 April 2014 15:19:22
Eccentricity: 0.7105166
inclination: 3.5980°
perigee height: 342 km
apogee height: 33334 km
right ascension of ascending node: 286.0622°
argument of perigee: 3.0914°
revolutions per day: 2.45418215
mean anomaly at epoch: 233.5920°
orbit number at epoch: 10542

The dashed part of the orbit path shows where the satellite is in the earth's shadow,  

DLR